Погода в Рызлее

Россия / Ульяновская область     53°11′37″N   46°58′16″E
темп.,
°C
ветер,
м/с
пор.,
м/с
влажн.,
%
обл.,
%
осадки,
мм/ч
давл.,
гПа
погр.,
м
6 мая, чт
чт601:00+5зюз410835 0.0 1015186
04:00+5зюз49875 0.0 1016146
07:00+7зюз410817 0.0 1017243
10:00+14юз57585 0.0 1017634
13:00+17юз564976 0.0 10171867
16:00+17ююз5649100 0.0 10161763
19:00+14ю4861100 0.0 1016216
22:00+11ю4967100 0.0 1017169
7 мая, пт
пт701:00+9ю4106899 0.0 1017191
04:00+9ю31070100 0.0 1017179
07:00+10ю51270100 0.0 1017326
10:00+14ю61054100 0.0 1016758
13:00+17ю71044100 0.0 10151850
16:00+17ююз694891 0.0 10152154
19:00+13ююз51169100 0.4 1016486
22:00+10ююз3593100 2.2 1017173
8 мая, сб
сб801:00+10ю3792100 1.7 1017272
04:00+10ююз2393100 1.7 101787
07:00+11ююв128989 0.0 1017144
10:00+15ююв46675 0.0 1017854
13:00+18ю685189 0.1 10152122
16:00+19ююз7847100 0.1 10142107
19:00+17ю59605 0.0 1013331
22:00+12ю3871100 0.0 1013144
9 мая, вс
вс901:00+12ююв41172100 0.0 1013205
04:00+12ююв51468100 0.0 1012316
07:00+13ю51370100 0.0 1012386
10:00+17ююз4659100 0.0 1012676
13:00+20ююз6854100 0.4 10111577
16:00+18ююз51067100 2.5 1012613
19:00+11ссз5793100 1.7 1014247
22:00+9с61194100 1.9 1016355
10 мая, пн
пн1001:00+8ссв61195100 0.6 1017431
04:00+8св71395100 0.8 1018427
07:00+8ссв61195100 0.0 1020440
10:00+9ссв61195100 1.3 1021388
13:00+12св81186100 0.3 1022585
16:00+15св71072100 0.3 1022741
19:00+14св7138293 0.0 1023474
22:00+11св61491100 0.0 1024370